Weather History for Stigler, OK

Change the Weather History Date:

Friday, November 22, 2013

  Actual Average (KJSV) Record (KJSV)
Temperature  
Mean Temperature 36 °F -  
Max Temperature 39 °F 59 °F 81 °F (1955)
Min Temperature 32 °F 37 °F 16 °F (1964)
Degree Days  
Heating Degree Days 30    
Moisture  
Dew Point 32 °F    
Average Humidity 88    
Maximum Humidity 93    
Minimum Humidity 75    
Precipitation  
Precipitation 0.14 in - - ()
Sea Level Pressure  
Sea Level Pressure 30.45 in    
Wind  
Wind Speed 13 mph (North)    
Max Wind Speed 18 mph    
Max Gust Speed 25 mph    
Visibility 6 miles    
Events Rain    
Averages and records for this station are not official NWS values.
T = Trace of Precipitation, MM = Missing Value Source: NWS Daily Summary

Daily Weather History Graph

Daily Weather History Graph

Search for Another Location

Airport:

Trip Planner

Search our weather history database for the weather conditions in past years. The results will help you decide how hot, cold, wet, or windy it might be!

Date:

Astronomy

Nov. 22, 2013 Rise Set
Actual Time 7:02 AM CST 5:10 PM CST
Civil Twilight 6:35 AM CST 5:37 PM CST
Nautical Twilight 6:04 AM CST 6:08 PM CST
Astronomical Twilight 5:33 AM CST 6:39 PM CST
Moon 9:40 PM CST (11/22) 10:48 AM CST (11/22)
Length of Visible Light 11h 02m
Length of Day
10h 07m
Waning Gibbous, 78% of the Moon is Illuminated
Nov 22
Waning Gibbous
Nov 25
Last Quarter
Dec 2
New
Dec 9
First Quarter
Dec 17
Full

Hourly Weather History & Observations

Time (CST) Temp. Windchill Dew Point Humidity Pressure Visibility Wind Dir Wind Speed Gust Speed Precip Events Conditions
12:15 AM 39.2 °F 30.5 °F 37.4 °F 93% 30.30 in 7.0 mi NNW 16.1 mph - N/A   Unknown
12:35 AM 39.2 °F 31.6 °F 37.4 °F 93% 30.33 in 5.0 mi NNW 12.7 mph 19.6 mph N/A Rain Light Rain
12:55 AM 39.2 °F 30.8 °F 35.6 °F 87% 30.33 in 2.0 mi NNW 15.0 mph 20.7 mph 0.01 in Rain Light Rain
1:15 AM 37.4 °F 28.2 °F 35.6 °F 93% 30.33 in 3.0 mi NNW 16.1 mph 23.0 mph N/A Rain Light Rain
1:35 AM 37.4 °F 29.3 °F 35.6 °F 93% 30.34 in 3.0 mi North 12.7 mph 19.6 mph N/A   Mist
1:55 AM 37.4 °F 29.8 °F 35.6 °F 93% 30.35 in 4.0 mi NNW 11.5 mph 17.3 mph 0.01 in   Mist
2:15 AM 37.4 °F 27.5 °F 35.6 °F 93% 30.36 in 5.0 mi NNW 18.4 mph 21.9 mph N/A   Mist
2:35 AM 37.4 °F 28.9 °F 33.8 °F 87% 30.37 in 3.0 mi NNW 13.8 mph 20.7 mph N/A   Mist
2:55 AM 35.6 °F 25.5 °F 33.8 °F 93% 30.36 in 3.0 mi NNW 17.3 mph 20.7 mph N/A   Mist
3:15 AM 35.6 °F 27.5 °F 33.8 °F 93% 30.37 in 7.0 mi NNW 11.5 mph 20.7 mph N/A   Unknown
3:35 AM 35.6 °F 25.5 °F 32.0 °F 87% 30.36 in 9.0 mi NNW 17.3 mph 24.2 mph N/A   Unknown
3:55 AM 35.6 °F 25.5 °F 32.0 °F 87% 30.36 in 9.0 mi North 17.3 mph 20.7 mph N/A   Unknown
4:15 AM 35.6 °F 28.0 °F 32.0 °F 87% 30.38 in 10.0 mi North 10.4 mph - N/A   Unknown
4:35 AM 35.6 °F 26.6 °F 32.0 °F 87% 30.39 in 10.0 mi North 13.8 mph 19.6 mph N/A   Unknown
4:55 AM 35.6 °F 26.2 °F 32.0 °F 87% 30.38 in 10.0 mi North 15.0 mph 21.9 mph N/A   Unknown
5:15 AM 35.6 °F 26.2 °F 32.0 °F 87% 30.39 in 10.0 mi North 15.0 mph 25.3 mph N/A   Unknown
5:35 AM 35.6 °F 25.9 °F 32.0 °F 87% 30.40 in 10.0 mi NNW 16.1 mph - N/A   Unknown
5:55 AM 33.8 °F 25.3 °F 32.0 °F 93% 30.41 in 10.0 mi North 11.5 mph - N/A   Unknown
6:15 AM 33.8 °F 24.3 °F 32.0 °F 93% 30.41 in 10.0 mi North 13.8 mph 21.9 mph N/A   Unknown
6:35 AM 33.8 °F 24.8 °F 32.0 °F 93% 30.43 in 9.0 mi North 12.7 mph 18.4 mph N/A   Unknown
6:55 AM 33.8 °F 22.8 °F 32.0 °F 93% 30.44 in 10.0 mi North 18.4 mph 21.9 mph N/A   Unknown
7:15 AM 33.8 °F 27.7 °F 30.2 °F 87% 30.46 in 10.0 mi NNW 6.9 mph - N/A   Unknown
7:35 AM 33.8 °F 24.8 °F 30.2 °F 87% 30.47 in 5.0 mi NNW 12.7 mph 18.4 mph N/A   Mist
7:55 AM 32.0 °F 22.1 °F 30.2 °F 93% 30.47 in 5.0 mi North 13.8 mph - N/A   Mist
8:15 AM 32.0 °F 21.6 °F 30.2 °F 93% 30.47 in 5.0 mi North 15.0 mph 21.9 mph N/A   Mist
8:35 AM 32.0 °F 21.6 °F 30.2 °F 93% 30.47 in 7.0 mi North 15.0 mph - N/A   Unknown
8:55 AM 32.0 °F 22.5 °F 30.2 °F 93% 30.49 in 10.0 mi North 12.7 mph 17.3 mph N/A   Unknown
9:15 AM 32.0 °F 23.0 °F 28.4 °F 87% 30.50 in 10.0 mi North 11.5 mph - N/A   Unknown
9:35 AM 33.8 °F 26.4 °F 28.4 °F 81% 30.51 in 9.0 mi North 9.2 mph - N/A   Unknown
9:55 AM 33.8 °F 26.4 °F 28.4 °F 81% 30.51 in 7.0 mi North 9.2 mph - N/A   Unknown
10:15 AM 33.8 °F 24.8 °F 28.4 °F 81% 30.50 in 9.0 mi North 12.7 mph - N/A   Unknown
10:35 AM 33.8 °F 24.8 °F 28.4 °F 81% 30.51 in 10.0 mi NNW 12.7 mph - N/A   Unknown
10:55 AM 35.6 °F 27.5 °F 28.4 °F 75% 30.51 in 10.0 mi North 11.5 mph - N/A   Unknown
11:15 AM 35.6 °F 26.6 °F 30.2 °F 81% 30.51 in 10.0 mi North 13.8 mph - N/A   Unknown
11:35 AM 35.6 °F 27.5 °F 30.2 °F 81% 30.49 in 10.0 mi North 11.5 mph - N/A   Unknown
11:55 AM 35.6 °F 27.5 °F 30.2 °F 81% 30.48 in 9.0 mi North 11.5 mph - N/A   Unknown
12:15 PM 35.6 °F 28.0 °F 30.2 °F 81% 30.48 in 9.0 mi North 10.4 mph - N/A   Unknown
12:35 PM 35.6 °F 27.5 °F 30.2 °F 81% 30.46 in 8.0 mi North 11.5 mph 17.3 mph N/A   Unknown
12:55 PM 35.6 °F 27.1 °F 30.2 °F 81% 30.47 in 8.0 mi North 12.7 mph 16.1 mph N/A   Unknown
1:15 PM 35.6 °F 27.5 °F 30.2 °F 81% 30.47 in 8.0 mi NNW 11.5 mph - N/A   Unknown
1:35 PM 35.6 °F 26.6 °F 30.2 °F 81% 30.47 in 9.0 mi North 13.8 mph 18.4 mph N/A   Unknown
1:55 PM 35.6 °F 27.1 °F 30.2 °F 81% 30.47 in 9.0 mi North 12.7 mph - N/A   Unknown
2:15 PM 35.6 °F 27.1 °F 28.4 °F 75% 30.47 in 9.0 mi North 12.7 mph - N/A   Unknown
2:35 PM 35.6 °F 26.6 °F 28.4 °F 75% 30.48 in 6.0 mi North 13.8 mph - N/A   Haze
2:55 PM 33.8 °F 24.3 °F 28.4 °F 81% 30.49 in 3.0 mi North 13.8 mph 20.7 mph N/A Rain Light Rain
3:15 PM 33.8 °F 24.3 °F 30.2 °F 87% 30.49 in 3.0 mi North 13.8 mph - N/A Rain Light Rain
3:35 PM 33.8 °F 24.8 °F 30.2 °F 87% 30.47 in 2.5 mi NNE 12.7 mph - 0.01 in   Unknown
3:55 PM 33.8 °F 26.4 °F 32.0 °F 93% 30.48 in 1.5 mi North 9.2 mph - 0.05 in Rain Rain
4:15 PM 33.8 °F 25.3 °F 32.0 °F 93% 30.47 in 3.0 mi North 11.5 mph - N/A Rain Light Rain
4:35 PM 33.8 °F 27.0 °F 32.0 °F 93% 30.48 in 2.0 mi North 8.1 mph - 0.03 in Rain Light Rain
4:55 PM 33.8 °F 27.0 °F 32.0 °F 93% 30.49 in 3.0 mi North 8.1 mph - 0.04 in   Mist
5:15 PM 33.8 °F 27.7 °F 32.0 °F 93% 30.50 in 2.0 mi NNW 6.9 mph - 0.01 in Rain Light Rain
5:35 PM 33.8 °F 27.7 °F 32.0 °F 93% 30.48 in 3.0 mi North 6.9 mph - 0.01 in Rain Light Rain
5:55 PM 33.8 °F 27.0 °F 32.0 °F 93% 30.48 in 4.0 mi North 8.1 mph - 0.02 in Rain Light Rain
6:15 PM 35.6 °F 28.6 °F 32.0 °F 87% 30.48 in 4.0 mi North 9.2 mph - N/A Rain Light Rain
6:35 PM 35.6 °F 28.6 °F 32.0 °F 87% 30.49 in 5.0 mi North 9.2 mph - N/A   Mist
6:55 PM 33.8 °F 25.8 °F 32.0 °F 93% 30.49 in 5.0 mi North 10.4 mph - N/A   Mist
7:15 PM 33.8 °F 25.8 °F 32.0 °F 93% 30.49 in 5.0 mi North 10.4 mph - N/A   Mist
7:35 PM 35.6 °F 27.5 °F 32.0 °F 87% 30.50 in 5.0 mi North 11.5 mph - N/A   Mist
7:55 PM 33.8 °F 25.8 °F 32.0 °F 93% 30.49 in 5.0 mi North 10.4 mph - N/A   Mist
8:15 PM 33.8 °F 25.8 °F 32.0 °F 93% 30.49 in 4.0 mi North 10.4 mph - N/A   Mist
8:35 PM 33.8 °F 27.0 °F 32.0 °F 93% 30.50 in 5.0 mi North 8.1 mph - N/A   Mist
8:55 PM 33.8 °F 25.8 °F 32.0 °F 93% 30.50 in 5.0 mi North 10.4 mph - N/A   Mist
9:15 PM 33.8 °F 26.4 °F 32.0 °F 93% 30.49 in 5.0 mi North 9.2 mph - N/A   Mist
9:35 PM 33.8 °F 25.3 °F 32.0 °F 93% 30.50 in 5.0 mi North 11.5 mph - N/A   Mist
9:55 PM 33.8 °F 25.3 °F 32.0 °F 93% 30.49 in 5.0 mi North 11.5 mph - N/A   Mist
10:15 PM 33.8 °F 26.4 °F 32.0 °F 93% 30.50 in 5.0 mi North 9.2 mph - N/A   Mist
10:35 PM 33.8 °F 25.3 °F 32.0 °F 93% 30.50 in 6.0 mi North 11.5 mph 18.4 mph N/A   Mist
10:55 PM 33.8 °F 25.8 °F 30.2 °F 87% 30.51 in 6.0 mi North 10.4 mph - N/A   Mist
11:15 PM 33.8 °F 26.4 °F 30.2 °F 87% 30.51 in 5.0 mi North 9.2 mph - N/A Rain Light Rain
11:35 PM 33.8 °F 27.0 °F 32.0 °F 93% 30.51 in 5.0 mi North 8.1 mph - 0.01 in Rain Light Rain
11:55 PM 33.8 °F 26.4 °F 32.0 °F 93% 30.51 in 7.0 mi North 9.2 mph - 0.01 in   Unknown